Data supplied by UK-AIR on 30/3/2019
All Data GMT hour ending  NB:  Upto 28/02/2018 PM10 were measured with a Partisol (emfab), from 01/04/2018 PM10 were measured with a BAM 1020 heated
Status: R =Ratified P=Provisional,P*=As supplied
,,London Westminster,,,,,,,,,,,,,,,,,,,,,,,
Date,time,"Nitric oxide",status,unit,"Nitrogen dioxide",status,unit,"Nitrogen oxides as nitrogen dioxide",status,unit,"PM<sub>2.5</sub> particulate matter (Hourly measured)",status,unit
 
01-01-2018,01:00,1.72310,R,ugm-3,8.44623,R,ugm-3,11.08827,R,ugm-3,,,
01-01-2018,02:00,1.21082,R,ugm-3,12.88010,R,ugm-3,14.73666,R,ugm-3,,,
01-01-2018,03:00,1.60667,R,ugm-3,8.74993,R,ugm-3,11.21346,R,ugm-3,,,
01-01-2018,04:00,1.50189,R,ugm-3,8.15946,R,ugm-3,10.46232,R,ugm-3,,,
01-01-2018,05:00,1.22247,R,ugm-3,5.26141,R,ugm-3,7.13584,R,ugm-3,,,
01-01-2018,06:00,2.20044,R,ugm-3,6.44452,R,ugm-3,9.81848,R,ugm-3,,,
01-01-2018,07:00,6.81088,R,ugm-3,17.99283,R,ugm-3,28.43604,R,ugm-3,,,
01-01-2018,08:00,7.09030,R,ugm-3,35.26985,R,ugm-3,46.14150,R,ugm-3,,,
01-01-2018,09:00,3.84204,R,ugm-3,27.53472,R,ugm-3,33.42576,R,ugm-3,,,
01-01-2018,10:00,3.59754,R,ugm-3,27.15846,R,ugm-3,32.67462,R,ugm-3,,,
01-01-2018,11:00,6.35682,R,ugm-3,37.03834,R,ugm-3,46.78533,R,ugm-3,,,
01-01-2018,12:00,5.41378,R,ugm-3,36.23090,R,ugm-3,44.53191,R,ugm-3,,,
01-01-2018,13:00,8.69697,R,ugm-3,26.20702,R,ugm-3,39.54219,R,ugm-3,,,
01-01-2018,14:00,20.22308,R,ugm-3,42.65715,R,ugm-3,73.66544,R,ugm-3,,,
01-01-2018,15:00,20.39772,R,ugm-3,40.83344,R,ugm-3,72.10950,R,ugm-3,,,
01-01-2018,16:00,27.45309,R,ugm-3,46.80871,R,ugm-3,88.90286,R,ugm-3,,,
01-01-2018,17:00,23.57613,R,ugm-3,49.58778,R,ugm-3,85.73734,R,ugm-3,,,
01-01-2018,18:00,7.92857,R,ugm-3,40.31558,R,ugm-3,52.47254,R,ugm-3,,,
01-01-2018,19:00,3.66740,R,ugm-3,31.12897,R,ugm-3,36.75224,R,ugm-3,,,
01-01-2018,20:00,2.65450,R,ugm-3,24.84874,R,ugm-3,28.91891,R,ugm-3,,,
01-01-2018,21:00,2.20044,R,ugm-3,16.47761,R,ugm-3,19.85157,R,ugm-3,,,
01-01-2018,22:00,1.74638,R,ugm-3,15.02771,R,ugm-3,17.70546,R,ugm-3,,,
01-01-2018,23:00,1.64160,R,ugm-3,16.10048,R,ugm-3,18.61756,R,ugm-3,,,
01-01-2018,24:00,2.09566,R,ugm-3,16.47732,R,ugm-3,19.69062,R,ugm-3,,,
02-01-2018,01:00,4.42493,R,ugm-3,15.17713,R,ugm-3,21.96192,R,ugm-3,,,
02-01-2018,02:00,1.02472,R,ugm-3,10.30396,R,ugm-3,11.87518,R,ugm-3,,,
02-01-2018,03:00,0.94321,R,ugm-3,8.21129,R,ugm-3,9.65752,R,ugm-3,,,
02-01-2018,04:00,0.80347,R,ugm-3,10.03513,R,ugm-3,11.26711,R,ugm-3,,,
02-01-2018,05:00,1.15281,R,ugm-3,11.37734,R,ugm-3,13.14496,R,ugm-3,,,
02-01-2018,06:00,1.04801,R,ugm-3,15.29374,R,ugm-3,16.90067,R,ugm-3,,,
02-01-2018,07:00,10.96917,R,ugm-3,33.18535,R,ugm-3,50.00450,R,ugm-3,,,
02-01-2018,08:00,11.73771,R,ugm-3,57.06285,R,ugm-3,75.06041,R,ugm-3,,,
02-01-2018,09:00,13.79879,R,ugm-3,60.23360,R,ugm-3,81.39145,R,ugm-3,,,
02-01-2018,10:00,12.71585,R,ugm-3,55.18748,R,ugm-3,74.68484,R,ugm-3,,,
02-01-2018,11:00,12.33158,R,ugm-3,56.95705,R,ugm-3,75.86521,R,ugm-3,,,
02-01-2018,12:00,10.89930,R,ugm-3,49.12009,R,ugm-3,65.83211,R,ugm-3,,,
02-01-2018,13:00,7.86007,R,ugm-3,36.77220,R,ugm-3,48.82414,R,ugm-3,,,
02-01-2018,14:00,4.68111,R,ugm-3,25.17510,R,ugm-3,32.35270,R,ugm-3,,,
02-01-2018,15:00,4.33177,R,ugm-3,23.99385,R,ugm-3,30.63581,R,ugm-3,,,
02-01-2018,16:00,7.09153,R,ugm-3,31.78053,R,ugm-3,42.65406,R,ugm-3,,,
02-01-2018,17:00,7.05660,R,ugm-3,32.04871,R,ugm-3,42.86867,R,ugm-3,,,
02-01-2018,18:00,3.63310,R,ugm-3,25.06513,R,ugm-3,30.63581,R,ugm-3,,,
02-01-2018,19:00,3.21390,R,ugm-3,37.40424,R,ugm-3,42.33214,R,ugm-3,,,
02-01-2018,20:00,2.13095,R,ugm-3,24.95401,R,ugm-3,28.22143,R,ugm-3,,,
02-01-2018,21:00,1.67682,R,ugm-3,17.49510,R,ugm-3,20.06619,R,ugm-3,,,
02-01-2018,22:00,1.11788,R,ugm-3,11.37725,R,ugm-3,13.09131,R,ugm-3,,,
02-01-2018,23:00,1.53708,R,ugm-3,11.37832,R,ugm-3,13.73514,R,ugm-3,,,
02-01-2018,24:00,1.22268,R,ugm-3,5.42205,R,ugm-3,7.29680,R,ugm-3,,,
03-01-2018,01:00,0.79197,R,ugm-3,3.29251,R,ugm-3,4.50685,R,ugm-3,,,
03-01-2018,02:00,3.26104,R,ugm-3,5.22963,R,ugm-3,10.22982,R,ugm-3,,,
03-01-2018,03:00,0.80361,R,ugm-3,2.63082,R,ugm-3,3.86301,R,ugm-3,,,
03-01-2018,04:00,0.90843,R,ugm-3,2.79202,R,ugm-3,4.18493,R,ugm-3,,,
03-01-2018,05:00,1.08313,R,ugm-3,1.88032,R,ugm-3,3.54109,R,ugm-3,,,
03-01-2018,06:00,1.43253,R,ugm-3,5.79777,R,ugm-3,7.99428,R,ugm-3,,,
03-01-2018,07:00,13.52166,R,ugm-3,24.81839,R,ugm-3,45.55132,R,ugm-3,,,
03-01-2018,08:00,12.82287,R,ugm-3,30.66496,R,ugm-3,50.32642,R,ugm-3,,,
03-01-2018,09:00,12.50841,R,ugm-3,33.34690,R,ugm-3,52.52619,R,ugm-3,,,
03-01-2018,10:00,14.53491,R,ugm-3,34.74648,R,ugm-3,57.03304,R,ugm-3,,,
03-01-2018,11:00,16.28190,R,ugm-3,31.04840,R,ugm-3,56.01363,R,ugm-3,,,
03-01-2018,12:00,12.40359,R,ugm-3,28.41059,R,ugm-3,47.42917,R,ugm-3,,,
03-01-2018,13:00,12.89275,R,ugm-3,28.41170,R,ugm-3,48.18031,R,ugm-3,,,
03-01-2018,14:00,13.34696,R,ugm-3,28.14447,R,ugm-3,48.60953,R,ugm-3,,,
03-01-2018,15:00,14.18552,R,ugm-3,33.24340,R,ugm-3,54.99422,R,ugm-3,,,
03-01-2018,16:00,12.40359,R,ugm-3,38.44368,R,ugm-3,57.46226,R,ugm-3,,,
03-01-2018,17:00,12.36865,R,ugm-3,38.98013,R,ugm-3,57.94514,R,ugm-3,,,
03-01-2018,18:00,4.68192,R,ugm-3,25.28116,R,ugm-3,32.46001,R,ugm-3,,,
03-01-2018,19:00,3.17951,R,ugm-3,21.20013,R,ugm-3,26.07531,R,ugm-3,,,
03-01-2018,20:00,3.31927,R,ugm-3,19.96643,R,ugm-3,25.05591,R,ugm-3,,,
03-01-2018,21:00,1.78193,R,ugm-3,16.47549,R,ugm-3,19.20774,R,ugm-3,,,
03-01-2018,22:00,1.78193,R,ugm-3,16.42184,R,ugm-3,19.15409,R,ugm-3,,,
03-01-2018,23:00,2.27108,R,ugm-3,14.16953,R,ugm-3,17.65181,R,ugm-3,,,
03-01-2018,24:00,1.04819,R,ugm-3,11.10853,R,ugm-3,12.71574,R,ugm-3,,,
04-01-2018,01:00,1.07167,R,ugm-3,8.51508,R,ugm-3,10.15828,R,ugm-3,,,
04-01-2018,02:00,3.35479,R,ugm-3,9.37811,R,ugm-3,14.52205,R,ugm-3,,,
04-01-2018,03:00,0.87364,R,ugm-3,4.77686,R,ugm-3,6.11643,R,ugm-3,,,
04-01-2018,04:00,0.59408,R,ugm-3,4.23977,R,ugm-3,5.15068,R,ugm-3,,,
04-01-2018,05:00,0.80375,R,ugm-3,12.01986,R,ugm-3,13.25227,R,ugm-3,,,
04-01-2018,06:00,1.88707,R,ugm-3,28.43983,R,ugm-3,31.33330,R,ugm-3,,,
04-01-2018,07:00,11.91650,R,ugm-3,50.67227,R,ugm-3,68.94398,R,ugm-3,,,
04-01-2018,08:00,25.26577,R,ugm-3,63.79038,R,ugm-3,102.53070,R,ugm-3,,,
04-01-2018,09:00,32.04525,R,ugm-3,69.22294,R,ugm-3,118.35830,R,ugm-3,,,
04-01-2018,10:00,35.71455,R,ugm-3,64.50885,R,ugm-3,119.27040,R,ugm-3,,,
04-01-2018,11:00,12.61541,R,ugm-3,36.34835,R,ugm-3,55.69171,R,ugm-3,,,
04-01-2018,12:00,7.65312,R,ugm-3,22.97881,R,ugm-3,34.71343,R,ugm-3,,,
04-01-2018,13:00,9.15579,R,ugm-3,22.12338,R,ugm-3,36.16206,R,ugm-3,,,
04-01-2018,14:00,9.74986,R,ugm-3,19.33462,R,ugm-3,34.28421,R,ugm-3,,,
04-01-2018,15:00,10.02943,R,ugm-3,18.85231,R,ugm-3,34.23055,R,ugm-3,,,
04-01-2018,16:00,9.64503,R,ugm-3,24.59240,R,ugm-3,39.38123,R,ugm-3,,,
04-01-2018,17:00,13.41917,R,ugm-3,33.93558,R,ugm-3,54.51135,R,ugm-3,,,
04-01-2018,18:00,7.68806,R,ugm-3,33.65581,R,ugm-3,45.44401,R,ugm-3,,,
04-01-2018,19:00,3.59941,R,ugm-3,32.52089,R,ugm-3,38.03991,R,ugm-3,,,
04-01-2018,20:00,2.79566,R,ugm-3,24.04211,R,ugm-3,28.32873,R,ugm-3,,,
04-01-2018,21:00,3.07523,R,ugm-3,21.73560,R,ugm-3,26.45088,R,ugm-3,,,
04-01-2018,22:00,1.50267,R,ugm-3,20.49843,R,ugm-3,22.80248,R,ugm-3,,,
04-01-2018,23:00,1.64245,R,ugm-3,16.85031,R,ugm-3,19.36870,R,ugm-3,,,
04-01-2018,24:00,1.15321,R,ugm-3,18.13700,R,ugm-3,19.90523,R,ugm-3,,,
05-01-2018,01:00,1.53788,R,ugm-3,19.96156,R,ugm-3,22.31961,R,ugm-3,,,
05-01-2018,02:00,0.83884,R,ugm-3,19.38804,R,ugm-3,20.67425,R,ugm-3,,,
05-01-2018,03:00,2.69129,R,ugm-3,11.21815,R,ugm-3,15.34473,R,ugm-3,,,
05-01-2018,04:00,1.22331,R,ugm-3,7.56719,R,ugm-3,9.44291,R,ugm-3,,,
05-01-2018,05:00,1.01360,R,ugm-3,8.90815,R,ugm-3,10.46232,R,ugm-3,,,
05-01-2018,06:00,1.11846,R,ugm-3,21.57042,R,ugm-3,23.28536,R,ugm-3,,,
05-01-2018,07:00,6.08161,R,ugm-3,47.01054,R,ugm-3,56.33555,R,ugm-3,,,
05-01-2018,08:00,5.90685,R,ugm-3,55.43374,R,ugm-3,64.49079,R,ugm-3,,,
05-01-2018,09:00,7.09522,R,ugm-3,52.91412,R,ugm-3,63.79330,R,ugm-3,,,
05-01-2018,10:00,7.13017,R,ugm-3,42.88109,R,ugm-3,53.81386,R,ugm-3,,,
05-01-2018,11:00,8.94766,R,ugm-3,38.37742,R,ugm-3,52.09697,R,ugm-3,,,
05-01-2018,12:00,8.10882,R,ugm-3,25.76752,R,ugm-3,38.20087,R,ugm-3,,,
05-01-2018,13:00,6.92046,R,ugm-3,16.42985,R,ugm-3,27.04106,R,ugm-3,,,
05-01-2018,14:00,10.38068,R,ugm-3,23.41075,R,ugm-3,39.32758,R,ugm-3,,,
05-01-2018,15:00,10.59039,R,ugm-3,25.66454,R,ugm-3,41.90292,R,ugm-3,,,
05-01-2018,16:00,10.80011,R,ugm-3,33.17631,R,ugm-3,49.73624,R,ugm-3,,,
05-01-2018,17:00,12.93217,R,ugm-3,46.00307,R,ugm-3,65.83211,R,ugm-3,,,
05-01-2018,18:00,7.23502,R,ugm-3,48.89040,R,ugm-3,59.98395,R,ugm-3,,,
05-01-2018,19:00,5.52238,R,ugm-3,52.58947,R,ugm-3,61.05700,R,ugm-3,,,
05-01-2018,20:00,6.01171,R,ugm-3,56.82890,R,ugm-3,66.04672,R,ugm-3,,,
05-01-2018,21:00,6.50103,R,ugm-3,62.83888,R,ugm-3,72.80699,R,ugm-3,,,
05-01-2018,22:00,12.82731,R,ugm-3,70.25400,R,ugm-3,89.92226,R,ugm-3,,,
05-01-2018,23:00,27.22745,R,ugm-3,79.66835,R,ugm-3,121.41652,R,ugm-3,,,
05-01-2018,24:00,34.81199,R,ugm-3,78.60850,R,ugm-3,131.98614,R,ugm-3,,,
06-01-2018,01:00,40.87737,R,ugm-3,78.82283,R,ugm-3,141.50059,R,ugm-3,,,
06-01-2018,02:00,65.06820,R,ugm-3,80.57544,R,ugm-3,180.34529,R,ugm-3,,,
06-01-2018,03:00,73.16677,R,ugm-3,80.64105,R,ugm-3,192.82853,R,ugm-3,,,
06-01-2018,04:00,63.13387,R,ugm-3,75.42191,R,ugm-3,172.22582,R,ugm-3,,,
06-01-2018,05:00,33.03516,R,ugm-3,67.81240,R,ugm-3,118.46561,R,ugm-3,,,
06-01-2018,06:00,19.47152,R,ugm-3,58.24215,R,ugm-3,88.09807,R,ugm-3,,,
06-01-2018,07:00,23.80629,R,ugm-3,51.81021,R,ugm-3,88.31268,R,ugm-3,,,
06-01-2018,08:00,29.64425,R,ugm-3,47.58025,R,ugm-3,93.03413,R,ugm-3,,,
06-01-2018,09:00,34.99280,R,ugm-3,46.72970,R,ugm-3,100.38458,R,ugm-3,,,
06-01-2018,10:00,41.66975,R,ugm-3,50.01239,R,ugm-3,113.90511,R,ugm-3,,,
06-01-2018,11:00,40.76085,R,ugm-3,50.06470,R,ugm-3,112.56379,R,ugm-3,,,
06-01-2018,12:00,34.99280,R,ugm-3,50.37810,R,ugm-3,104.03298,R,ugm-3,,,
06-01-2018,13:00,30.72795,R,ugm-3,48.97682,R,ugm-3,96.09235,R,ugm-3,,,
06-01-2018,14:00,23.56159,R,ugm-3,46.06898,R,ugm-3,82.19625,R,ugm-3,,,
06-01-2018,15:00,21.49907,R,ugm-3,46.54881,R,ugm-3,79.51360,R,ugm-3,,,
06-01-2018,16:00,23.49167,R,ugm-3,46.92733,R,ugm-3,82.94739,R,ugm-3,,,
06-01-2018,17:00,17.37405,R,ugm-3,36.08041,R,ugm-3,62.72024,R,ugm-3,,,
06-01-2018,18:00,11.71088,R,ugm-3,31.72616,R,ugm-3,49.68259,R,ugm-3,,,
06-01-2018,19:00,11.60600,R,ugm-3,34.62326,R,ugm-3,52.41889,R,ugm-3,,,
06-01-2018,20:00,8.73946,R,ugm-3,34.35076,R,ugm-3,47.75108,R,ugm-3,,,
06-01-2018,21:00,8.98417,R,ugm-3,34.08286,R,ugm-3,47.85839,R,ugm-3,,,
06-01-2018,22:00,6.53712,R,ugm-3,31.07468,R,ugm-3,41.09812,R,ugm-3,,,
06-01-2018,23:00,5.94283,R,ugm-3,33.48819,R,ugm-3,42.60040,R,ugm-3,,,
06-01-2018,24:00,4.50956,R,ugm-3,30.21324,R,ugm-3,37.12781,R,ugm-3,,,
07-01-2018,01:00,3.58963,R,ugm-3,25.68620,R,ugm-3,31.19022,R,ugm-3,,,
07-01-2018,02:00,2.89035,R,ugm-3,20.89236,R,ugm-3,25.32417,R,ugm-3,,,
07-01-2018,03:00,3.28661,R,ugm-3,19.90921,R,ugm-3,24.94860,R,ugm-3,,,
07-01-2018,04:00,3.21668,R,ugm-3,18.62145,R,ugm-3,23.55363,R,ugm-3,,,
07-01-2018,05:00,2.83208,R,ugm-3,13.84588,R,ugm-3,18.18833,R,ugm-3,,,
07-01-2018,06:00,3.21668,R,ugm-3,16.90456,R,ugm-3,21.83673,R,ugm-3,,,
07-01-2018,07:00,3.70617,R,ugm-3,16.63689,R,ugm-3,22.31961,R,ugm-3,,,
07-01-2018,08:00,4.23063,R,ugm-3,16.42291,R,ugm-3,22.90979,R,ugm-3,,,
07-01-2018,09:00,7.76198,R,ugm-3,19.16349,R,ugm-3,31.06503,R,ugm-3,,,
07-01-2018,10:00,11.39823,R,ugm-3,22.27976,R,ugm-3,39.75680,R,ugm-3,,,
07-01-2018,11:00,12.02758,R,ugm-3,22.28052,R,ugm-3,40.72255,R,ugm-3,,,
07-01-2018,12:00,11.01363,R,ugm-3,23.67427,R,ugm-3,40.56160,R,ugm-3,,,
07-01-2018,13:00,8.18155,R,ugm-3,20.55897,R,ugm-3,33.10384,R,ugm-3,,,
07-01-2018,14:00,8.04170,R,ugm-3,20.02227,R,ugm-3,32.35270,R,ugm-3,,,
07-01-2018,15:00,8.46126,R,ugm-3,23.29561,R,ugm-3,36.26936,R,ugm-3,,,
07-01-2018,16:00,9.71996,R,ugm-3,28.93069,R,ugm-3,43.83442,R,ugm-3,,,
07-01-2018,17:00,10.97866,R,ugm-3,31.13198,R,ugm-3,47.96570,R,ugm-3,,,
07-01-2018,18:00,7.37738,R,ugm-3,30.64474,R,ugm-3,41.95657,R,ugm-3,,,
07-01-2018,19:00,5.17466,R,ugm-3,28.92518,R,ugm-3,36.85954,R,ugm-3,,,
07-01-2018,20:00,6.78300,R,ugm-3,29.19540,R,ugm-3,39.59584,R,ugm-3,,,
07-01-2018,21:00,6.50328,R,ugm-3,31.82405,R,ugm-3,41.79561,R,ugm-3,,,
07-01-2018,22:00,5.59422,R,ugm-3,32.19852,R,ugm-3,40.77621,R,ugm-3,,,
07-01-2018,23:00,4.05581,R,ugm-3,27.58250,R,ugm-3,33.80133,R,ugm-3,,,
07-01-2018,24:00,4.82502,R,ugm-3,23.82773,R,ugm-3,31.22599,R,ugm-3,,,
08-01-2018,01:00,3.21723,R,ugm-3,19.89038,R,ugm-3,24.82341,R,ugm-3,,,
08-01-2018,02:00,2.37796,R,ugm-3,18.81653,R,ugm-3,22.46268,R,ugm-3,,,
08-01-2018,03:00,3.04239,R,ugm-3,11.96747,R,ugm-3,16.63240,R,ugm-3,,,
08-01-2018,04:00,2.16814,R,ugm-3,11.64473,R,ugm-3,14.96916,R,ugm-3,,,
08-01-2018,05:00,2.72766,R,ugm-3,12.93293,R,ugm-3,17.11528,R,ugm-3,,,
08-01-2018,06:00,4.30130,R,ugm-3,17.81683,R,ugm-3,24.41207,R,ugm-3,,,
08-01-2018,07:00,19.12856,R,ugm-3,34.08768,R,ugm-3,63.41773,R,ugm-3,,,
08-01-2018,08:00,27.66123,R,ugm-3,41.82177,R,ugm-3,84.23506,R,ugm-3,,,
08-01-2018,09:00,40.94980,R,ugm-3,46.12657,R,ugm-3,108.91539,R,ugm-3,,,
08-01-2018,10:00,35.21473,R,ugm-3,43.81407,R,ugm-3,97.80924,R,ugm-3,,,
08-01-2018,11:00,30.21403,R,ugm-3,41.28766,R,ugm-3,87.61519,R,ugm-3,,,
08-01-2018,12:00,27.34650,R,ugm-3,37.10002,R,ugm-3,79.03073,R,ugm-3,,,
08-01-2018,13:00,23.28998,R,ugm-3,34.95007,R,ugm-3,70.66087,R,ugm-3,,,
08-01-2018,14:00,82.49410,R,ugm-3,44.34166,R,ugm-3,170.83084,R,ugm-3,,,
08-01-2018,15:00,48.01373,R,ugm-3,41.89467,R,ugm-3,115.51470,R,ugm-3,,,
08-01-2018,16:00,38.22215,R,ugm-3,40.38313,R,ugm-3,98.98961,R,ugm-3,,,
08-01-2018,17:00,22.45070,R,ugm-3,35.21754,R,ugm-3,69.64147,R,ugm-3,,,
08-01-2018,18:00,20.28257,R,ugm-3,35.85932,R,ugm-3,66.95882,R,ugm-3,,,
08-01-2018,19:00,15.63156,R,ugm-3,34.24533,R,ugm-3,58.21340,R,ugm-3,,,
08-01-2018,20:00,10.94559,R,ugm-3,32.47036,R,ugm-3,49.25336,R,ugm-3,,,
08-01-2018,21:00,11.50511,R,ugm-3,32.30993,R,ugm-3,49.95085,R,ugm-3,,,
08-01-2018,22:00,9.96643,R,ugm-3,33.16692,R,ugm-3,48.44857,R,ugm-3,,,
08-01-2018,23:00,10.31613,R,ugm-3,33.38186,R,ugm-3,49.19971,R,ugm-3,,,
08-01-2018,24:00,7.55351,R,ugm-3,32.62811,R,ugm-3,44.20999,R,ugm-3,,,
09-01-2018,01:00,7.32164,R,ugm-3,31.48135,R,ugm-3,42.70771,R,ugm-3,,,
09-01-2018,02:00,3.59087,R,ugm-3,28.40271,R,ugm-3,33.90864,R,ugm-3,,,
09-01-2018,03:00,3.77741,R,ugm-3,25.64866,R,ugm-3,31.44060,R,ugm-3,,,
09-01-2018,04:00,5.98090,R,ugm-3,30.37161,R,ugm-3,39.54219,R,ugm-3,,,
09-01-2018,05:00,10.59773,R,ugm-3,33.80854,R,ugm-3,50.05816,R,ugm-3,,,
09-01-2018,06:00,9.44352,R,ugm-3,32.84200,R,ugm-3,47.32186,R,ugm-3,,,
09-01-2018,07:00,25.95219,R,ugm-3,36.44798,R,ugm-3,76.24077,R,ugm-3,,,
09-01-2018,08:00,24.37827,R,ugm-3,36.28595,R,ugm-3,73.66544,R,ugm-3,,,
09-01-2018,09:00,50.61026,R,ugm-3,34.96247,R,ugm-3,112.56379,R,ugm-3,,,
09-01-2018,10:00,34.13657,R,ugm-3,33.39533,R,ugm-3,85.73734,R,ugm-3,,,
09-01-2018,11:00,73.09982,R,ugm-3,39.86019,R,ugm-3,151.94502,R,ugm-3,,,
09-01-2018,12:00,86.56558,R,ugm-3,41.80086,R,ugm-3,174.53289,R,ugm-3,,,
09-01-2018,13:00,64.42578,R,ugm-3,38.13739,R,ugm-3,136.92221,R,ugm-3,,,
09-01-2018,14:00,49.56098,R,ugm-3,37.26883,R,ugm-3,113.26128,R,ugm-3,,,
09-01-2018,15:00,,,,,,,,,,,,
09-01-2018,16:00,34.41638,R,ugm-3,41.81903,R,ugm-3,94.59007,R,ugm-3,,,
09-01-2018,17:00,39.27804,R,ugm-3,47.45589,R,ugm-3,107.68138,R,ugm-3,,,
09-01-2018,18:00,49.70088,R,ugm-3,51.86252,R,ugm-3,128.06948,R,ugm-3,,,
09-01-2018,19:00,39.55785,R,ugm-3,50.94352,R,ugm-3,111.59804,R,ugm-3,,,
09-01-2018,20:00,29.27490,R,ugm-3,50.82922,R,ugm-3,95.71678,R,ugm-3,,,
09-01-2018,21:00,21.75507,R,ugm-3,51.95081,R,ugm-3,85.30811,R,ugm-3,,,
09-01-2018,22:00,22.62947,R,ugm-3,49.64433,R,ugm-3,84.34236,R,ugm-3,,,
09-01-2018,23:00,13.64064,R,ugm-3,41.91220,R,ugm-3,62.82755,R,ugm-3,,,
09-01-2018,24:00,8.46419,R,ugm-3,29.89043,R,ugm-3,42.86867,R,ugm-3,,,
10-01-2018,01:00,8.53614,R,ugm-3,27.56817,R,ugm-3,40.65672,R,ugm-3,,,
10-01-2018,02:00,12.17449,R,ugm-3,29.07573,R,ugm-3,47.74302,R,ugm-3,,,
10-01-2018,03:00,22.91463,R,ugm-3,32.29190,R,ugm-3,67.42717,R,ugm-3,,,
10-01-2018,04:00,12.94414,R,ugm-3,29.70298,R,ugm-3,49.55038,R,ugm-3,,,
10-01-2018,05:00,1.71422,R,ugm-3,17.98624,R,ugm-3,20.61468,R,ugm-3,,,
10-01-2018,06:00,3.11359,R,ugm-3,14.49847,R,ugm-3,19.27257,R,ugm-3,,,
10-01-2018,07:00,9.20083,R,ugm-3,29.05423,R,ugm-3,43.16198,R,ugm-3,,,
10-01-2018,08:00,11.57976,R,ugm-3,43.33707,R,ugm-3,61.09245,R,ugm-3,,,
10-01-2018,09:00,26.93780,R,ugm-3,65.74195,R,ugm-3,107.04600,R,ugm-3,,,
10-01-2018,10:00,27.81241,R,ugm-3,61.39460,R,ugm-3,104.03969,R,ugm-3,,,
10-01-2018,11:00,23.12453,R,ugm-3,59.18787,R,ugm-3,94.64498,R,ugm-3,,,
10-01-2018,12:00,22.10999,R,ugm-3,55.85823,R,ugm-3,89.75974,R,ugm-3,,,
10-01-2018,13:00,18.96142,R,ugm-3,49.84179,R,ugm-3,78.91556,R,ugm-3,,,
10-01-2018,14:00,20.32580,R,ugm-3,53.92344,R,ugm-3,85.08922,R,ugm-3,,,
10-01-2018,15:00,18.29672,R,ugm-3,54.67255,R,ugm-3,82.72713,R,ugm-3,,,
10-01-2018,16:00,19.06637,R,ugm-3,66.00082,R,ugm-3,95.23551,R,ugm-3,,,
10-01-2018,17:00,28.23222,R,ugm-3,79.70137,R,ugm-3,122.99016,R,ugm-3,,,
10-01-2018,18:00,45.09458,R,ugm-3,84.49970,R,ugm-3,153.64376,R,ugm-3,,,
10-01-2018,19:00,73.04693,R,ugm-3,90.17042,R,ugm-3,202.17414,R,ugm-3,,,
10-01-2018,20:00,83.26230,R,ugm-3,93.61858,R,ugm-3,221.28566,R,ugm-3,,,
10-01-2018,21:00,113.66353,R,ugm-3,97.89649,R,ugm-3,272.17814,R,ugm-3,,,
10-01-2018,22:00,117.65173,R,ugm-3,96.77396,R,ugm-3,277.17076,R,ugm-3,,,
10-01-2018,23:00,133.07974,R,ugm-3,97.38319,R,ugm-3,301.43595,R,ugm-3,,,
10-01-2018,24:00,178.24429,R,ugm-3,96.04217,R,ugm-3,369.34628,R,ugm-3,,,
11-01-2018,01:00,180.79369,R,ugm-3,94.49607,R,ugm-3,371.70920,R,ugm-3,,,
11-01-2018,02:00,156.11244,R,ugm-3,88.36529,R,ugm-3,327.73435,R,ugm-3,,,
11-01-2018,03:00,50.59891,R,ugm-3,69.86432,R,ugm-3,147.44823,R,ugm-3,,,
11-01-2018,04:00,19.87564,R,ugm-3,60.24942,R,ugm-3,90.72498,R,ugm-3,,,
11-01-2018,05:00,23.05994,R,ugm-3,58.32123,R,ugm-3,93.67931,R,ugm-3,,,
11-01-2018,06:00,19.80566,R,ugm-3,52.19201,R,ugm-3,82.56027,R,ugm-3,,,
11-01-2018,07:00,28.44876,R,ugm-3,53.54997,R,ugm-3,97.17080,R,ugm-3,,,
11-01-2018,08:00,31.98299,R,ugm-3,53.34128,R,ugm-3,102.38117,R,ugm-3,,,
11-01-2018,09:00,51.89362,R,ugm-3,52.57029,R,ugm-3,132.13940,R,ugm-3,,,
11-01-2018,10:00,50.45894,R,ugm-3,48.37800,R,ugm-3,125.74729,R,ugm-3,,,
11-01-2018,11:00,47.58957,R,ugm-3,43.53862,R,ugm-3,116.50827,R,ugm-3,,,
11-01-2018,12:00,50.24898,R,ugm-3,43.16726,R,ugm-3,120.21462,R,ugm-3,,,
11-01-2018,13:00,35.51721,R,ugm-3,36.37344,R,ugm-3,90.83241,R,ugm-3,,,
11-01-2018,14:00,35.41224,R,ugm-3,38.79044,R,ugm-3,93.08845,R,ugm-3,,,
11-01-2018,15:00,34.57242,R,ugm-3,40.88387,R,ugm-3,93.89417,R,ugm-3,,,
11-01-2018,16:00,25.54440,R,ugm-3,40.97555,R,ugm-3,80.14308,R,ugm-3,,,
11-01-2018,17:00,40.66108,R,ugm-3,45.24542,R,ugm-3,107.59155,R,ugm-3,,,
11-01-2018,18:00,29.14861,R,ugm-3,42.96930,R,ugm-3,87.66321,R,ugm-3,,,
11-01-2018,19:00,21.90520,R,ugm-3,42.74180,R,ugm-3,76.32930,R,ugm-3,,,
11-01-2018,20:00,24.14471,R,ugm-3,48.86924,R,ugm-3,85.89061,R,ugm-3,,,
11-01-2018,21:00,16.09647,R,ugm-3,43.91340,R,ugm-3,68.59431,R,ugm-3,,,
11-01-2018,22:00,15.08169,R,ugm-3,42.83733,R,ugm-3,65.96227,R,ugm-3,,,
11-01-2018,23:00,22.39509,R,ugm-3,39.41231,R,ugm-3,73.75097,R,ugm-3,,,
11-01-2018,24:00,5.73874,R,ugm-3,35.40833,R,ugm-3,44.20761,R,ugm-3,,,
12-01-2018,01:00,8.21345,R,ugm-3,35.41963,R,ugm-3,48.01341,R,ugm-3,,,
12-01-2018,02:00,4.85340,R,ugm-3,33.26212,R,ugm-3,40.70390,R,ugm-3,,,
12-01-2018,03:00,10.43015,R,ugm-3,37.75368,R,ugm-3,53.74635,R,ugm-3,,,
12-01-2018,04:00,6.19509,R,ugm-3,33.22935,R,ugm-3,42.72835,R,ugm-3,,,
12-01-2018,05:00,8.61012,R,ugm-3,34.73974,R,ugm-3,47.94175,R,ugm-3,,,
12-01-2018,06:00,9.97514,R,ugm-3,35.49530,R,ugm-3,50.79030,R,ugm-3,,,
12-01-2018,07:00,30.48543,R,ugm-3,42.47527,R,ugm-3,89.21894,R,ugm-3,,,
12-01-2018,08:00,26.42537,R,ugm-3,44.56213,R,ugm-3,85.08047,R,ugm-3,,,
12-01-2018,09:00,39.48056,R,ugm-3,43.24819,R,ugm-3,103.78421,R,ugm-3,,,
12-01-2018,10:00,33.60048,R,ugm-3,50.16809,R,ugm-3,101.68810,R,ugm-3,,,
12-01-2018,11:00,26.81038,R,ugm-3,54.61358,R,ugm-3,95.72225,R,ugm-3,,,
12-01-2018,12:00,25.02535,R,ugm-3,53.53459,R,ugm-3,91.90626,R,ugm-3,,,
12-01-2018,13:00,11.48016,R,ugm-3,47.26918,R,ugm-3,64.87185,R,ugm-3,,,
12-01-2018,14:00,8.71512,R,ugm-3,44.62931,R,ugm-3,57.99231,R,ugm-3,,,
12-01-2018,15:00,8.64512,R,ugm-3,42.31806,R,ugm-3,55.57373,R,ugm-3,,,
12-01-2018,16:00,6.82510,R,ugm-3,45.80743,R,ugm-3,56.27243,R,ugm-3,,,
12-01-2018,17:00,16.87024,R,ugm-3,62.06169,R,ugm-3,87.92903,R,ugm-3,,,
12-01-2018,18:00,19.49528,R,ugm-3,64.64749,R,ugm-3,94.53983,R,ugm-3,,,
12-01-2018,19:00,4.72507,R,ugm-3,39.08435,R,ugm-3,46.32935,R,ugm-3,,,
12-01-2018,20:00,4.27006,R,ugm-3,38.11588,R,ugm-3,44.66322,R,ugm-3,,,
12-01-2018,21:00,3.50005,R,ugm-3,34.62062,R,ugm-3,39.98729,R,ugm-3,,,
12-01-2018,22:00,2.76504,R,ugm-3,27.25569,R,ugm-3,31.49536,R,ugm-3,,,
12-01-2018,23:00,2.45004,R,ugm-3,25.64259,R,ugm-3,29.39925,R,ugm-3,,,
12-01-2018,24:00,2.48504,R,ugm-3,29.13618,R,ugm-3,32.94651,R,ugm-3,,,
13-01-2018,01:00,1.91381,R,ugm-3,22.37681,R,ugm-3,25.31128,R,ugm-3,,,
13-01-2018,02:00,1.63374,R,ugm-3,20.15323,R,ugm-3,22.65825,R,ugm-3,,,
13-01-2018,03:00,2.69567,R,ugm-3,21.78746,R,ugm-3,25.92076,R,ugm-3,,,
13-01-2018,04:00,2.38059,R,ugm-3,22.86212,R,ugm-3,26.51231,R,ugm-3,,,
13-01-2018,05:00,2.59064,R,ugm-3,24.36848,R,ugm-3,28.34074,R,ugm-3,,,
13-01-2018,06:00,3.60589,R,ugm-3,27.97443,R,ugm-3,33.50338,R,ugm-3,,,
13-01-2018,07:00,11.48284,R,ugm-3,37.35383,R,ugm-3,54.96061,R,ugm-3,,,
13-01-2018,08:00,11.90295,R,ugm-3,39.55989,R,ugm-3,57.81081,R,ugm-3,,,
13-01-2018,09:00,16.34905,R,ugm-3,44.30479,R,ugm-3,69.37298,R,ugm-3,,,
13-01-2018,10:00,17.85442,R,ugm-3,42.48058,R,ugm-3,69.85697,R,ugm-3,,,
13-01-2018,11:00,13.79341,R,ugm-3,41.50118,R,ugm-3,62.65079,R,ugm-3,,,
13-01-2018,12:00,14.35355,R,ugm-3,38.27611,R,ugm-3,60.28458,R,ugm-3,,,
13-01-2018,13:00,12.00797,R,ugm-3,32.51533,R,ugm-3,50.92729,R,ugm-3,,,
13-01-2018,14:00,7.98198,R,ugm-3,30.24537,R,ugm-3,42.48423,R,ugm-3,,,
13-01-2018,15:00,14.84367,R,ugm-3,37.79348,R,ugm-3,60.55347,R,ugm-3,,,
13-01-2018,16:00,14.38856,R,ugm-3,40.85752,R,ugm-3,62.91968,R,ugm-3,,,
13-01-2018,17:00,21.49532,R,ugm-3,47.06189,R,ugm-3,80.02092,R,ugm-3,,,
13-01-2018,18:00,17.88943,R,ugm-3,41.72779,R,ugm-3,69.15787,R,ugm-3,,,
13-01-2018,19:00,11.79792,R,ugm-3,36.01028,R,ugm-3,54.10017,R,ugm-3,,,
13-01-2018,20:00,6.82669,R,ugm-3,33.89899,R,ugm-3,44.36644,R,ugm-3,,,
13-01-2018,21:00,9.27730,R,ugm-3,36.21831,R,ugm-3,50.44330,R,ugm-3,,,
13-01-2018,22:00,7.28180,R,ugm-3,31.78502,R,ugm-3,42.95030,R,ugm-3,,,
13-01-2018,23:00,6.89671,R,ugm-3,34.06052,R,ugm-3,44.63533,R,ugm-3,,,
13-01-2018,24:00,7.24679,R,ugm-3,33.68506,R,ugm-3,44.79666,R,ugm-3,,,
14-01-2018,01:00,6.81661,R,ugm-3,31.66225,R,ugm-3,42.11424,R,ugm-3,,,
14-01-2018,02:00,3.73513,R,ugm-3,35.31095,R,ugm-3,41.03806,R,ugm-3,,,
14-01-2018,03:00,4.06195,R,ugm-3,30.84592,R,ugm-3,37.07416,R,ugm-3,,,
14-01-2018,04:00,2.87138,R,ugm-3,28.15151,R,ugm-3,32.55424,R,ugm-3,,,
14-01-2018,05:00,3.18653,R,ugm-3,34.23294,R,ugm-3,39.11889,R,ugm-3,,,
14-01-2018,06:00,4.69226,R,ugm-3,37.41268,R,ugm-3,44.60737,R,ugm-3,,,
14-01-2018,07:00,4.65724,R,ugm-3,35.04498,R,ugm-3,42.18598,R,ugm-3,,,
14-01-2018,08:00,4.51717,R,ugm-3,36.17450,R,ugm-3,43.10073,R,ugm-3,,,
14-01-2018,09:00,10.57508,R,ugm-3,42.16749,R,ugm-3,58.38239,R,ugm-3,,,
14-01-2018,10:00,12.95623,R,ugm-3,42.01401,R,ugm-3,61.87995,R,ugm-3,,,
14-01-2018,11:00,15.96768,R,ugm-3,40.58917,R,ugm-3,65.07259,R,ugm-3,,,
14-01-2018,12:00,13.30640,R,ugm-3,38.08715,R,ugm-3,58.49000,R,ugm-3,,,
14-01-2018,13:00,9.27946,R,ugm-3,37.26657,R,ugm-3,51.49488,R,ugm-3,,,
14-01-2018,14:00,6.58317,R,ugm-3,29.77817,R,ugm-3,39.87221,R,ugm-3,,,
14-01-2018,15:00,4.69226,R,ugm-3,32.94656,R,ugm-3,40.14125,R,ugm-3,,,
14-01-2018,16:00,4.30707,R,ugm-3,36.01237,R,ugm-3,42.61645,R,ugm-3,,,
14-01-2018,17:00,3.74680,R,ugm-3,39.66949,R,ugm-3,45.41450,R,ugm-3,,,
14-01-2018,18:00,5.98788,R,ugm-3,43.44358,R,ugm-3,52.62486,R,ugm-3,,,
14-01-2018,19:00,3.71178,R,ugm-3,36.65608,R,ugm-3,42.34741,R,ugm-3,,,
14-01-2018,20:00,2.73131,R,ugm-3,27.50534,R,ugm-3,31.69330,R,ugm-3,,,
14-01-2018,21:00,2.55623,R,ugm-3,26.59001,R,ugm-3,30.50950,R,ugm-3,,,
14-01-2018,22:00,4.06195,R,ugm-3,38.21771,R,ugm-3,44.44595,R,ugm-3,,,